Weather History for KRPH - April, 2013

Change the Weather History Date:

Wednesday, April 10, 2013

  Actual Average (KMWL) Record (KMWL)
Temperature  
Mean Temperature 40 °F -  
Max Temperature 48 °F 72 °F 95 °F (2011)
Min Temperature 32 °F 49 °F 33 °F (2003)
Degree Days  
Heating Degree Days 25    
Moisture  
Dew Point 33 °F    
Average Humidity 82    
Maximum Humidity 96    
Minimum Humidity 58    
Precipitation  
Precipitation 0.59 in - - ()
Sea Level Pressure  
Sea Level Pressure 29.96 in    
Wind  
Wind Speed 15 mph (NW)    
Max Wind Speed 24 mph    
Max Gust Speed 34 mph    
Visibility 8 miles    
Events Rain , Snow    
Averages and records for this station are not official NWS values.
T = Trace of Precipitation, MM = Missing Value Source: NWS Daily Summary

Daily Weather History Graph

Daily Weather History Graph

Search for Another Location

Airport or City:

Trip Planner

Search our weather history database for the weather conditions in past years. The results will help you decide how hot, cold, wet, or windy it might be!

Date:

Astronomy

Apr. 10, 2013 Rise Set
Actual Time 7:10 AM CDT 8:01 PM CDT
Civil Twilight 6:44 AM CDT 8:26 PM CDT
Nautical Twilight 6:15 AM CDT 8:56 PM CDT
Astronomical Twilight 5:44 AM CDT 9:27 PM CDT
Moon 7:08 AM CDT (4/10) 8:35 PM CDT (4/10)
Length of Visible Light 13h 41m
Length of Day
12h 51m
New Moon, 0% of the Moon is Illuminated
Apr 10
New Moon
Apr 18
First Quarter
Apr 25
Full
May 2
Last Quarter
May 9
New

Hourly Weather History & Observations

Time (CDT) Temp. Windchill Dew Point Humidity Pressure Visibility Wind Dir Wind Speed Gust Speed Precip Events Conditions
12:15 AM 40.1 °F 32.7 °F 34.3 °F 80% 29.81 in 10.0 mi NNW 12.7 mph 19.6 mph N/A   Overcast
12:35 AM 40.5 °F 32.8 °F 34.7 °F 80% 29.84 in 10.0 mi NW 13.8 mph 20.7 mph N/A   Overcast
12:55 AM 41.0 °F 31.9 °F 35.1 °F 79% 29.86 in 10.0 mi NW 19.6 mph 26.5 mph N/A   Overcast
1:15 AM 40.6 °F 32.3 °F 34.9 °F 80% 29.86 in 10.0 mi NNW 16.1 mph 28.8 mph N/A   Overcast
1:35 AM 39.2 °F 30.2 °F 36.5 °F 90% 29.86 in 5.0 mi NNW 17.3 mph 31.1 mph N/A Rain Rain
1:55 AM 38.8 °F 28.3 °F 37.0 °F 93% 29.85 in 4.0 mi North 23.0 mph 28.8 mph N/A   Drizzle
2:15 AM 38.3 °F 28.7 °F 36.7 °F 94% 29.85 in 2.0 mi NNW 18.4 mph 27.6 mph 0.01 in Rain Light Rain
2:35 AM 37.0 °F 27.0 °F 35.4 °F 94% 29.86 in 2.0 mi NNW 18.4 mph 28.8 mph 0.02 in Snow Light Snow
2:55 AM 37.2 °F 27.3 °F 35.6 °F 94% 29.87 in 10.0 mi WNW 18.4 mph 25.3 mph 0.02 in   Overcast
3:15 AM 37.6 °F 28.4 °F 36.0 °F 94% 29.91 in 2.5 mi WNW 16.1 mph - 0.03 in Rain Rain
3:35 AM 37.4 °F 29.3 °F 35.6 °F 93% 29.88 in 4.0 mi NNW 12.7 mph - 0.05 in   Drizzle
3:55 AM 37.2 °F 27.3 °F 35.6 °F 94% 29.90 in 4.0 mi WNW 18.4 mph - 0.06 in Rain Rain
4:15 AM 36.3 °F 28.0 °F 34.9 °F 95% 29.89 in 2.5 mi NW 12.7 mph 23.0 mph 0.08 in Rain Rain
4:35 AM 36.1 °F 26.9 °F 35.1 °F 96% 29.90 in 3.0 mi NW 15.0 mph 20.7 mph 0.11 in Rain Rain
4:55 AM 35.6 °F 24.0 °F 33.6 °F 92% 29.92 in 5.0 mi NNW 23.0 mph 34.5 mph 0.12 in Rain Light Rain
5:15 AM 35.1 °F 24.8 °F 33.8 °F 95% 29.93 in 4.0 mi NW 17.3 mph 26.5 mph 0.04 in Rain Light Rain
5:35 AM 35.1 °F 24.1 °F 33.1 °F 92% 29.91 in 7.0 mi NNW 19.6 mph 28.8 mph 0.05 in Rain Light Rain
5:55 AM 34.9 °F 26.2 °F 32.9 °F 92% 29.96 in 10.0 mi NW 12.7 mph 26.5 mph 0.05 in   Overcast
6:15 AM 34.7 °F 22.5 °F 32.9 °F 93% 29.91 in 10.0 mi NNW 24.2 mph 32.2 mph N/A   Overcast
6:35 AM 34.3 °F 22.3 °F 32.5 °F 93% 29.95 in 10.0 mi NW 23.0 mph 27.6 mph N/A   Overcast
6:55 AM 33.8 °F 22.5 °F 32.2 °F 94% 29.99 in 3.0 mi West 19.6 mph 26.5 mph 0.02 in Snow Light Snow
7:15 AM 33.4 °F 23.1 °F 32.0 °F 94% 29.98 in 3.0 mi NW 16.1 mph - 0.17 in Snow Snow
7:35 AM 33.1 °F 22.2 °F 32.0 °F 96% 29.97 in 7.0 mi NW 17.3 mph 23.0 mph 0.18 in   Overcast
7:55 AM 33.1 °F 24.4 °F 32.0 °F 96% 29.96 in 7.0 mi NNW 11.5 mph 21.9 mph 0.18 in   Overcast
8:15 AM 33.4 °F 24.3 °F 32.0 °F 94% 29.96 in 10.0 mi NW 12.7 mph 24.2 mph N/A   Overcast
8:35 AM 33.1 °F 23.9 °F 32.0 °F 96% 29.98 in 10.0 mi NW 12.7 mph 23.0 mph N/A   Overcast
8:55 AM 32.9 °F 23.7 °F 31.6 °F 95% 30.01 in 3.0 mi NW 12.7 mph 24.2 mph 0.02 in Snow Snow
9:15 AM 32.5 °F 21.2 °F 31.5 °F 96% 30.00 in 5.0 mi NNW 18.4 mph 23.0 mph 0.01 in   Overcast
9:35 AM 32.4 °F 21.3 °F 31.1 °F 95% 30.04 in 1.5 mi NW 17.3 mph 25.3 mph 0.10 in Snow Light Snow
9:55 AM 32.7 °F 22.5 °F 31.6 °F 96% 30.01 in 2.5 mi NW 15.0 mph 23.0 mph 0.11 in   Overcast
10:15 AM 32.5 °F 21.2 °F 31.3 °F 95% 30.03 in 5.0 mi NW 18.4 mph 24.2 mph 0.01 in   Overcast
10:35 AM 32.0 °F 19.8 °F 30.2 °F 93% 30.03 in 10.0 mi NW 20.7 mph 28.8 mph 0.01 in   Overcast
10:55 AM 32.4 °F 20.6 °F 30.6 °F 93% 30.04 in 10.0 mi WNW 19.6 mph 26.5 mph 0.01 in   Overcast
11:15 AM 32.7 °F 21.4 °F 30.4 °F 91% 30.04 in 10.0 mi NW 18.4 mph 25.3 mph N/A   Overcast
11:35 AM 32.5 °F 20.8 °F 29.8 °F 90% 30.03 in 10.0 mi NW 19.6 mph 26.5 mph N/A   Overcast
11:55 AM 32.4 °F 22.5 °F 29.7 °F 90% 30.06 in 10.0 mi NW 13.8 mph 23.0 mph N/A   Overcast
12:15 PM 33.1 °F 22.2 °F 29.7 °F 87% 30.03 in 10.0 mi NW 17.3 mph 26.5 mph N/A   Overcast
12:35 PM 34.0 °F 23.0 °F 30.6 °F 87% 30.02 in 10.0 mi NNW 18.4 mph 26.5 mph N/A   Overcast
12:55 PM 35.6 °F 25.5 °F 31.3 °F 84% 30.02 in 10.0 mi NNW 17.3 mph 24.2 mph N/A   Overcast
1:15 PM 37.4 °F 27.5 °F 31.8 °F 80% 30.02 in 10.0 mi NNW 18.4 mph 23.0 mph N/A   Overcast
1:35 PM 38.1 °F 29.5 °F 32.5 °F 80% 30.02 in 10.0 mi NW 15.0 mph 24.2 mph N/A   Overcast
1:55 PM 38.3 °F 28.1 °F 32.0 °F 78% 30.01 in 10.0 mi NW 20.7 mph 25.3 mph N/A   Overcast
2:15 PM 39.2 °F 30.8 °F 32.2 °F 76% 30.01 in 10.0 mi NW 15.0 mph 24.2 mph N/A   Overcast
2:35 PM 39.7 °F 30.3 °F 32.2 °F 74% 30.00 in 10.0 mi NW 19.6 mph 25.3 mph N/A   Overcast
2:55 PM 40.3 °F 31.3 °F 32.0 °F 72% 30.00 in 10.0 mi NNW 18.4 mph 25.3 mph N/A   Overcast
3:15 PM 40.8 °F 31.7 °F 32.2 °F 71% 29.99 in 10.0 mi NW 19.6 mph 26.5 mph N/A   Overcast
3:35 PM 43.3 °F 35.8 °F 33.1 °F 67% 29.98 in 10.0 mi NW 16.1 mph 24.2 mph N/A   Overcast
3:55 PM 43.9 °F 36.2 °F 32.7 °F 65% 29.96 in 10.0 mi NNW 17.3 mph 23.0 mph N/A   Overcast
4:15 PM 44.2 °F 37.0 °F 33.3 °F 65% 29.95 in 10.0 mi NNW 16.1 mph 21.9 mph N/A   Overcast
4:35 PM 45.7 °F 38.8 °F 34.0 °F 64% 29.94 in 10.0 mi NW 16.1 mph 21.9 mph N/A   Mostly Cloudy
4:55 PM 46.4 °F 40.4 °F 34.0 °F 62% 29.94 in 10.0 mi North 13.8 mph 20.7 mph N/A   Mostly Cloudy
5:15 PM 47.7 °F - 34.2 °F 60% 29.93 in 10.0 mi NW 15.0 mph - N/A   Scattered Clouds
5:35 PM 47.8 °F - 34.2 °F 59% 29.93 in 10.0 mi NW 12.7 mph 18.4 mph N/A   Clear
5:55 PM 48.4 °F - 34.3 °F 58% 29.92 in 10.0 mi WNW 16.1 mph 20.7 mph N/A   Clear
6:15 PM 48.4 °F - 34.3 °F 58% 29.92 in 10.0 mi NNW 13.8 mph 20.7 mph N/A   Clear
6:35 PM 48.2 °F - 34.2 °F 58% 29.93 in 10.0 mi NNW 15.0 mph 19.6 mph N/A   Clear
6:55 PM 47.7 °F - 33.8 °F 59% 29.94 in 10.0 mi NW 11.5 mph 18.4 mph N/A   Clear
7:15 PM 46.6 °F - 33.6 °F 61% 29.93 in 10.0 mi NW 12.7 mph - N/A   Clear
7:35 PM 45.5 °F 39.6 °F 33.6 °F 63% 29.94 in 10.0 mi NW 12.7 mph 18.4 mph N/A   Clear
7:55 PM 44.4 °F 42.0 °F 33.8 °F 66% 29.96 in 10.0 mi NW 4.6 mph - N/A   Clear
8:15 PM 43.2 °F 41.5 °F 33.8 °F 70% 29.97 in 10.0 mi NNW 3.5 mph - N/A   Clear
8:35 PM 43.0 °F 38.8 °F 33.8 °F 70% 29.98 in 10.0 mi NW 6.9 mph - N/A   Clear
8:55 PM 42.8 °F 38.0 °F 33.8 °F 70% 29.98 in 10.0 mi NW 8.1 mph - N/A   Clear
9:15 PM 42.3 °F 37.9 °F 32.9 °F 69% 29.98 in 10.0 mi NW 6.9 mph - N/A   Clear
9:35 PM 41.5 °F 38.6 °F 33.1 °F 72% 29.99 in 10.0 mi NNW 4.6 mph - N/A   Clear
9:55 PM 40.3 °F 38.2 °F 33.3 °F 76% 29.98 in 10.0 mi NNW 3.5 mph - N/A   Clear
10:15 PM 39.9 °F 36.7 °F 33.1 °F 77% 29.98 in 10.0 mi NNW 4.6 mph - N/A   Clear
10:35 PM 39.6 °F - 33.1 °F 78% 29.99 in 10.0 mi Calm Calm - N/A   Clear
10:55 PM 39.7 °F - 33.3 °F 78% 29.99 in 10.0 mi Calm Calm - N/A   Clear
11:15 PM 39.2 °F 35.9 °F 33.8 °F 81% 29.98 in 10.0 mi NNW 4.6 mph - N/A   Clear
11:35 PM 39.2 °F 37.0 °F 34.0 °F 82% 29.96 in 10.0 mi NNE 3.5 mph - N/A   Clear
11:55 PM 39.7 °F - 34.0 °F 80% 29.98 in 10.0 mi Calm Calm - N/A   Clear